Mora, MN

7:33 AM CST on December 04, 2016 (GMT -0600)
Mora Municipal

Weather History for KJMR - September, 2014

Change the Weather History Date:

Saturday, September 6, 2014

  Actual Average Record
Temperature  
Mean Temperature 58 °F -  
Max Temperature 69 °F 74 °F 92 °F (1960)
Min Temperature 48 °F 48 °F 33 °F (1986)
Degree Days  
Heating Degree Days 6    
Growing Degree Days 8 (Base 50)    
Moisture  
Dew Point 49 °F    
Average Humidity 71    
Maximum Humidity 94    
Minimum Humidity 43    
Precipitation  
Precipitation 0.00 in - - ()
Sea Level Pressure  
Sea Level Pressure 30.16 in    
Wind  
Wind Speed 0 mph (North)    
Max Wind Speed 0 mph    
Max Gust Speed -    
Visibility 10 miles    
Events      
Averages and records for this station are not official NWS values.
T = Trace of Precipitation, MM = Missing Value Source: NWS Daily Summary

Daily Weather History Graph

Daily Weather History Graph

Search for Another Location

Airport or City:

Trip Planner

Search our weather history database for the weather conditions in past years. The results will help you decide how hot, cold, wet, or windy it might be!

Date:

Astronomy

Sep. 06, 2014 Rise Set
Actual Time 6:40 AM CDT 7:41 PM CDT
Civil Twilight 6:09 AM CDT 8:12 PM CDT
Nautical Twilight 5:33 AM CDT 8:48 PM CDT
Astronomical Twilight 4:54 AM CDT 9:26 PM CDT
Moon 6:03 PM CDT (9/6) 3:36 AM CDT (9/6)
Length of Visible Light 14h 02m
Length of Day
13h 01m
Waxing Gibbous, 92% of the Moon is Illuminated
Sep 6
Waxing Gibbous
Sep 8
Full
Sep 15
Last Quarter
Sep 24
New
Oct 1
First Quarter

Hourly Weather History & Observations

Time (CDT) Temp. Dew Point Humidity Pressure Visibility Wind Dir Wind Speed Gust Speed Precip Events Conditions
12:12 AM 50.0 °F 46.4 °F 87% 30.17 in 10.0 mi Calm Calm - N/A   Clear
12:33 AM 50.0 °F 46.4 °F 87% 30.16 in 10.0 mi Calm Calm - N/A   Clear
1:12 AM 51.8 °F 46.4 °F 82% 30.16 in 10.0 mi Calm Calm - N/A   Clear
1:52 AM 50.0 °F 46.4 °F 87% 30.17 in 10.0 mi Calm Calm - N/A   Clear
2:13 AM 50.0 °F 46.4 °F 87% 30.16 in 10.0 mi Calm Calm - N/A   Clear
2:33 AM 50.0 °F 46.4 °F 87% 30.16 in 10.0 mi Calm Calm - N/A   Clear
2:52 AM 50.0 °F 46.4 °F 87% 30.16 in 10.0 mi Calm Calm - N/A   Clear
3:13 AM 50.0 °F 44.6 °F 82% 30.16 in 10.0 mi Calm Calm - N/A   Clear
3:32 AM 50.0 °F 46.4 °F 87% 30.16 in 10.0 mi Calm Calm - N/A   Scattered Clouds
3:53 AM 50.0 °F 46.4 °F 87% 30.16 in 10.0 mi Calm Calm - N/A   Scattered Clouds
4:13 AM 50.0 °F 46.4 °F 87% 30.15 in 10.0 mi Calm Calm - N/A   Clear
4:33 AM 50.0 °F 46.4 °F 87% 30.15 in 10.0 mi Calm Calm - N/A   Clear
4:53 AM 50.0 °F 46.4 °F 87% 30.16 in 10.0 mi Calm Calm - N/A   Clear
5:13 AM 48.2 °F 44.6 °F 87% 30.16 in 10.0 mi Calm Calm - N/A   Clear
5:33 AM 48.2 °F 44.6 °F 87% 30.16 in 10.0 mi Calm Calm - N/A   Clear
5:53 AM 48.2 °F 44.6 °F 87% 30.16 in 10.0 mi Calm Calm - N/A   Clear
6:13 AM 48.2 °F 44.6 °F 87% 30.17 in 10.0 mi Calm Calm - N/A   Clear
6:33 AM 48.2 °F 44.6 °F 87% 30.17 in 10.0 mi Calm Calm - N/A   Clear
6:53 AM 48.2 °F 44.6 °F 87% 30.17 in 10.0 mi Calm Calm - N/A   Clear
7:13 AM 48.2 °F 44.6 °F 87% 30.17 in 10.0 mi Calm Calm - N/A   Clear
7:33 AM 50.0 °F 48.2 °F 94% 30.18 in 10.0 mi Calm Calm - N/A   Clear
7:53 AM 50.0 °F 46.4 °F 87% 30.19 in 10.0 mi Calm Calm - N/A   Clear
8:13 AM 51.8 °F 48.2 °F 88% 30.19 in 10.0 mi Calm Calm - N/A   Clear
8:32 AM 53.6 °F 48.2 °F 82% 30.19 in 10.0 mi Calm Calm - N/A   Clear
9:12 AM 55.4 °F 50.0 °F 82% 30.19 in 10.0 mi Calm Calm - N/A   Clear
9:33 AM 59.0 °F 51.8 °F 77% 30.19 in 10.0 mi Calm Calm - N/A   Clear
9:53 AM 60.8 °F 51.8 °F 72% 30.19 in 10.0 mi Calm Calm - N/A   Clear
10:13 AM 62.6 °F 51.8 °F 68% 30.20 in 10.0 mi Calm Calm - N/A   Clear
10:33 AM 64.4 °F 51.8 °F 64% 30.20 in 10.0 mi Calm Calm - N/A   Clear
10:52 AM 64.4 °F 51.8 °F 64% 30.20 in 10.0 mi Calm Calm - N/A   Clear
11:13 AM 64.4 °F 50.0 °F 59% 30.20 in 10.0 mi Calm Calm - N/A   Clear
11:32 AM 64.4 °F 48.2 °F 56% 30.20 in 10.0 mi Calm Calm - N/A   Clear
11:52 AM 66.2 °F 48.2 °F 52% 30.19 in 10.0 mi Calm Calm - N/A   Clear
12:12 PM 68.0 °F 44.6 °F 43% 30.19 in 10.0 mi Calm Calm - N/A   Clear
12:33 PM 68.0 °F 46.4 °F 46% 30.19 in 10.0 mi Calm Calm - N/A   Clear
12:52 PM 68.0 °F 46.4 °F 46% 30.19 in 10.0 mi Calm Calm - N/A   Clear
1:13 PM 69.8 °F 48.2 °F 46% 30.18 in 10.0 mi Calm Calm - N/A   Clear
1:32 PM 69.8 °F 48.2 °F 46% 30.18 in 0.2 mi Calm Calm - N/A   Haze
1:53 PM 69.8 °F 46.4 °F 43% 30.17 in 10.0 mi Calm Calm - N/A   Clear
2:13 PM 69.8 °F 46.4 °F 43% 30.17 in 10.0 mi Calm Calm - N/A   Clear
2:53 PM 69.8 °F 46.4 °F 43% 30.17 in 10.0 mi Calm Calm - N/A   Clear
3:12 PM 69.8 °F 46.4 °F 43% 30.16 in 10.0 mi Calm Calm - N/A   Clear
3:33 PM 69.8 °F 48.2 °F 46% 30.16 in 10.0 mi Calm Calm - N/A   Clear
3:53 PM 69.8 °F 48.2 °F 46% 30.15 in 10.0 mi Calm Calm - N/A   Clear
4:32 PM 69.8 °F 50.0 °F 49% 30.15 in 10.0 mi Calm Calm - N/A   Clear
4:52 PM 69.8 °F 50.0 °F 49% 30.14 in 10.0 mi Calm Calm - N/A   Clear
5:13 PM 69.8 °F 48.2 °F 46% 30.14 in 10.0 mi Calm Calm - N/A   Clear
5:32 PM 69.8 °F 50.0 °F 49% 30.14 in 10.0 mi Calm Calm - N/A   Clear
5:52 PM 69.8 °F 50.0 °F 49% 30.14 in 10.0 mi Calm Calm - N/A   Clear
6:13 PM 69.8 °F 51.8 °F 53% 30.14 in 10.0 mi Calm Calm - N/A   Clear
6:53 PM 68.0 °F 51.8 °F 56% 30.13 in 10.0 mi Calm Calm - N/A   Clear
7:12 PM 68.0 °F 51.8 °F 56% 30.13 in 10.0 mi Calm Calm - N/A   Clear
7:33 PM 64.4 °F 51.8 °F 64% 30.13 in 10.0 mi Calm Calm - N/A   Clear
7:52 PM 64.4 °F 53.6 °F 68% 30.13 in 10.0 mi Calm Calm - N/A   Clear
8:12 PM 59.0 °F 53.6 °F 82% 30.13 in 10.0 mi Calm Calm - N/A   Clear
8:33 PM 57.2 °F 53.6 °F 88% 30.13 in 10.0 mi Calm Calm - N/A   Clear
8:52 PM 55.4 °F 53.6 °F 94% 30.13 in 10.0 mi Calm Calm - N/A   Clear
9:13 PM 55.4 °F 51.8 °F 88% 30.14 in 10.0 mi Calm Calm - N/A   Clear
9:32 PM 55.4 °F 51.8 °F 88% 30.14 in 10.0 mi Calm Calm - N/A   Clear
9:53 PM 57.2 °F 51.8 °F 82% 30.13 in 10.0 mi Calm Calm - N/A   Clear
10:13 PM 59.0 °F 51.8 °F 77% 30.13 in 10.0 mi Calm Calm - N/A   Clear
10:32 PM 59.0 °F 50.0 °F 72% 30.13 in 10.0 mi Calm Calm - N/A   Clear
10:53 PM 59.0 °F 50.0 °F 72% 30.13 in 10.0 mi Calm Calm - N/A   Clear
11:12 PM 59.0 °F 50.0 °F 72% 30.12 in 10.0 mi Calm Calm - N/A   Clear
11:33 PM 59.0 °F 51.8 °F 77% 30.12 in 10.0 mi Calm Calm - N/A   Clear
11:53 PM 59.0 °F 50.0 °F 72% 30.12 in 10.0 mi Calm Calm - N/A   Clear